Location: Unspecified
(43.4680°N, 87.1740°E)
Time: 21:24:13
(UTC+00:00)

Cosmos 2237 Rocket - Pass Details

Date: 17 April 2021
Orbit: 836 x 849 km, 71.0° (Epoch: 12 May)

Event Time Altitude Azimuth Distance (km) Brightness Sun altitude
Rises 16:28:50 0° 326° (NW) 3,401 6.5 -31.0°
Reaches altitude 10° 16:31:30 10° 317° (NW) 2,460 5.4 -31.3°
Enters shadow 16:36:01 31° 264° (W) 1,419 3.5 -31.7°
